Simultaneous Nadir Overpasses (SNOs) Predictions

Prediction of SNOs between LANDSAT-8 and METOP-B Satellite Orbit:

Table of predicted SNOs for the next 14.0 days since TLE Epoch: 5/4/2024
Index Date (LANDSAT-8) Time (LANDSAT-8) Lat,Lon (LANDSAT-8) SZA (LANDSAT-8 ) Date (METOP-B) Time (METOP-B) Lat,Lon (METOP-B) SZA (METOP-B ) Distance(km) Time Diff (sec)
1 05/04/2024 09:52:45 81.32, 74.36 67.59 05/04/2024 09:51:32 81.32, 74.38 67.56 0.61 73
2 05/04/2024 10:42:12 -81.32,-118.10 112.43 05/04/2024 10:42:12 -81.32,-118.08 112.43 0.70 0
3 05/04/2024 11:31:31 81.46, 52.36 67.97 05/04/2024 11:32:45 81.38, 52.37 67.95 9.20 74
4 05/07/2024 05:26:59 81.31, 140.48 66.77 05/07/2024 05:25:50 81.31, 140.33 66.73 2.48 69
5 05/07/2024 06:16:25 -81.32, -51.57 113.20 05/07/2024 06:16:29 -81.32, -51.70 113.21 2.10 4
6 05/10/2024 01:01:12 81.32,-152.77 66.07 05/10/2024 01:00:06 81.32,-152.62 66.06 2.55 66
7 05/10/2024 01:50:39 -81.32, 14.82 113.95 05/10/2024 01:50:46 -81.33, 14.99 113.92 3.01 7
8 05/12/2024 20:35:26 81.31, -86.54 65.33 05/12/2024 20:34:24 81.32, -86.44 65.32 1.83 62
9 05/12/2024 21:24:52 -81.33, 81.45 114.63 05/12/2024 21:25:03 -81.33, 81.59 114.60 2.41 11
10 05/15/2024 16:09:39 81.31, -20.07 64.67 05/15/2024 16:08:41 81.32, -19.95 64.66 2.03 58



Historial Predications of SNOs between LANDSAT-8 and METOP-B
